Location: Newark
(42.7133°N, 87.7910°W)
Time: 02:02:56
(UTC+00:00)

Vanguard 1 - Pass Details

Date: 28 September 2019
Orbit: 653 x 3830 km, 34.2° (Epoch: 22 October)

Event Time Altitude Azimuth Distance (km) Brightness Sun altitude
Rises 04:38:33 0° 216° (SW) 6,485 - -46.8°
Reaches altitude 10° 04:42:40 10° 210° (SSW) 5,830 - -47.1°
Maximum altitude 05:00:42 44° 146° (SE) 4,578 - -48.2°
Exits shadow 05:11:57 30° 100° (E) 5,407 13.5 -48.6°
Drops below altitude 10° 05:21:29 10° 84° (E) 6,687 14.2 -48.9°
Sets 05:26:34 0° 79° (ENE) 7,473 14.6 -49.1°
